Miscellaneous Local Product
Issued by NWS Hastings, NE

Home | Current Version | Previous Version | Text Only | Print | Product List | Glossary On
Versions: 1 2 3 4 5 6 7 8 9 10 11 12 13 14 15 16 17 18 19 20 21 22 23 24 25 26 27 28 29 30 31 32 33 34 35 36 37 38 39 40 41 42 43 44 45 46 47 48 49 50
000
AXUS43 KGID 240402
MISGRI

GID CWA HOURLY WEATHER ROUNDUP
NATIONAL WEATHER SERVICE HASTINGS NE
1100 PM CDT SUN APR 23 2017

NOTE: "FAIR" INDICATES FEW OR NO CLOUDS BELOW 12,000 FEET WITH NO
SIGNIFICANT WEATHER AND/OR OBSTRUCTIONS TO VISIBILITY.

...SOUTH CENTRAL NEBRASKA...

CITY           SKY/WX    TMP DP  RH WIND       PRES   REMARKS
GRAND ISLAND   CLOUDY    55  35  47 S15       29.84F
HASTINGS       PTCLDY    56  32  40 S12       29.85F
KEARNEY        CLOUDY    55  30  38 S16       29.81F
ORD            CLOUDY    57  30  35 SE10      29.77F
YORK           CLOUDY    55  32  41 S16G22    29.87F
AURORA         CLOUDY    56  33  41 S14G21    29.85F
LEXINGTON      CLOUDY    56  31  38 S16       29.77F
HOLDREGE       CLOUDY    55  33  44 S14       29.80F
HEBRON         MOCLDY    55  33  44 S10G17    29.90S

...NEBRASKA PANHANDLE...

CITY           SKY/WX    TMP DP  RH WIND       PRES   REMARKS
CHADRON        CLOUDY    64  39  39 S23       29.55F
ALLIANCE       PTCLDY    50  39  66 SE9       29.65S
SCOTTSBLUFF    CLOUDY    58  37  45 E10       29.63F
SIDNEY         CLOUDY    50  41  71 CALM      29.69S

...WESTERN AND NORTH CENTRAL NEBRASKA...

CITY           SKY/WX    TMP DP  RH WIND       PRES   REMARKS
VALENTINE      PTCLDY    64  35  34 S22G30    29.66F
AINSWORTH      MOCLDY    56  32  39 S14       29.70F
ONEILL         PTCLDY    58  30  34 S16       29.76F
BROKEN BOW     CLOUDY    58  30  34 S15G25    29.76F
IMPERIAL       PTCLDY    56  39  53 S18       29.70F
NORTH PLATTE   CLOUDY    60  31  33 S15       29.73F
MCCOOK         CLOUDY    57  33  40 S13G22    29.74F

...EASTERN NEBRASKA...

CITY           SKY/WX    TMP DP  RH WIND       PRES   REMARKS
NORFOLK        CLOUDY    57  29  34 S14       29.83S
SO SIOUX CITY  CLOUDY    59  28  30 S13       29.86S
TEKAMAH        CLOUDY    48  38  68 S10       29.87F
COLUMBUS       CLOUDY    55  32  41 S10       29.87S
ALBION         CLOUDY    56  32  40 S10       29.82F
OMAHA EPPLEY   CLOUDY    60  32  34 S16       29.90F
OFFUTT AFB     CLOUDY    57  33  40 SE12      29.90F
MILLARD        CLOUDY    59  36  42 SE9       29.90F
LINCOLN        CLOUDY    51  32  48 S8        29.90F
NEBRASKA CITY  CLOUDY    56  28  35 S12       29.93F
BEATRICE       CLOUDY    55  35  46 S9        29.91S
FALLS CITY     CLOUDY    55  36  48 S8        29.95S

...NORTHERN KANSAS...

CITY           SKY/WX    TMP DP  RH WIND       PRES   REMARKS
GOODLAND       CLOUDY    56  38  50 S24G32    29.71F
HILL CITY      CLOUDY    56  39  53 S15G25    29.80F
NORTON         CLEAR     55  30  38 SE13G21   29.79S
PHILLIPSBURG   CLEAR     57  36  44 SE15G24   29.83F
SMITH CENTER   PTCLDY    52  36  54 SE13      29.86F
RUSSELL        CLOUDY    55  38  52 S18G28    29.85F
CONCORDIA      CLOUDY    54  36  50 S14       29.90F
SALINA         PTCLDY    52  41  66 S10       29.92F
TOPEKA         CLOUDY    54  40  59 S7        29.97F



USA.gov is the U.S. government's official web portal to all federal, state and local government web resources and services.